COSMOS 2251 DEB, 34128

Orbit data source: Space-Track

COSMOS 2251 DEB, 34128 is space debris in LEO originally from a launch on Wed, 16 Jun 1993 UTC launched from the Plesetsk Missile And Space Complex (PKMTR). The debris from Iridium 33, an American commercial communications satellite, has been tracked extensively since its accidental collision with the defunct Russian satellite Cosmos 2251 in 2009. This event, occurring at high speed in low Earth orbit (LEO), generated thousands of pieces of space debris, significantly increasing the risk of further collisions. The Iridium 33 debris cloud has impacted space traffic management and orbital debris mitigation strategies, making it a subject of ongoing study in space situational awareness.

Loading next visibility...
Identifier
34128, 1993-036KZ
Orbit
LEO
Country
Flag of CISCIS
Related business
Manufacturer
Unknown
Mission
Spacecraft
Bus & Motor
Unknown
Mass
Unknown
Launch date (UTC)
1993-06-16 (33 years ago)
Launch vehicle
Unknown
Launch site
Plesetsk Missile And Space Complex (PKMTR)
Object type
Payload
Rocket body
Debris
Shape & HBR
Unknown shape, 0.1 m
Radar Cross Section
Medium (>0.1 m² and <1 m²)

Expand to show TLE details & history
Last TLE update: 9 hours ago

TLE from 9 hours ago
0 COSMOS 2251 DEB
1 34128U 93036KZ  26257.51990053  .00036895  00000-0  16407-2 0  9994
2 34128  73.9869  84.8391 0022718 136.1918 255.2255 15.21097803933337
Epoch: 2026-09-14T12:28Z
TLE epoch observation values (Epoch: 2026-09-14T12:28:39.405Z)
Latitude
29.89033°
Longitude
-86.38174°
Altitude
510.041 km
Speed
7.61 km/s
True Right ascension
06h 17m 07s
True Declination
29° 44' 12"
Sunlit
Object was in daylight at epoch
Visualization orbit readout
Latitude
Unknown
Longitude
Unknown
Altitude
Unknown
Speed
Unknown
Apparent Right ascension
Unknown
Apparent Declination
Unknown
Sunlit
N/A
Visualization observer readout
Local Sidereal Time
14:19:58
Azimuth
Unknown
Elevation
Unknown
Doppler factor
Unknown
Orbital elements
Apogee altitude
515.689 km
Perigee altitude
484.437 km
Semi-major axis
6,878.2 km
Eccentricity
0.00227
Inclination
73.9869°
RAAN
84.8391°
Arg. of periapsis
136.1918°
True anomaly
254.97396°
Mean anomaly
255.2255°
Eccentric anomaly
255.09971°
Mean motion
3.80479 °/min
Orbital period
94.62 mins
BSTAR
0.0016407

Documentation

Showing up to 5 results
|